This demonstration page uses our WeatherBlox Daily Observations layout. Learn more.

38.89511, -77.03637

Hourly Observations for December 18, 2016

Temp ( °F °C ) Dew Point ( °F °C ) Humidity (%) Winds ( mph kmh ) Pressure ( in mb ) Visibility ( mi km ) Precip ( " mm )
12:28 am 00:28 Partly Cloudy 46 8 46 8 100 100 S 13 20 29.88 1012 10 16.0934 0 0
12:52 am 00:52 Cloudy 50 10 49 9.4 96 96 S 14 22 29.85 1011 10 16.0934 0 0
1:52 am 01:52 Mostly Cloudy 54 12.2 52 11.1 93 93 SSW 16 26 29.84 1011 10 16.0934 0 0
2:02 am 02:02 Cloudy 55 13 54 12 94 94 SSW 14 22 29.85 1011 10 16.0934 0 0
2:52 am 02:52 Cloudy 55 12.8 52 11.1 90 90 S 14 22 29.83 1010 10 16.0934 0 0
2:59 am 02:59 Cloudy 54 12.2 51 10.6 90 90 SSW 13 20 29.83 1010 10 16.0934 0 0
3:52 am 03:52 Cloudy 56 13.3 52 11.1 87 87 SSW 16 26 29.81 1010 10 16.0934 0 0
4:52 am 04:52 Cloudy 55 12.8 51 10.6 87 87 S 15 24 29.8 1009 10 16.0934 0 0
5:52 am 05:52 Partly Cloudy 51 10.6 49 9.4 92 92 S 15 24 29.78 1009 10 16.0934 0 0
6:52 am 06:52 Mostly Cloudy 60 15.6 55 12.8 84 84 SSW 18 30 29.78 1008 10 16.0934 0 0
7:52 am 07:52 Mostly Cloudy 61 16.1 56 13.3 84 84 SSW 16 26 29.83 1010 10 16.0934 0 0
8:28 am 08:28 Cloudy 61 16 55 13 83 83 S 10 17 29.85 1011 10 16.0934 0 0
8:52 am 08:52 Cloudy 56 13.3 53 11.7 90 90 S 18 30 29.85 1011 10 16.0934 0 0
9:52 am 09:52 Cloudy with Light Rain 55 12.8 54 12.2 96 96 S 12 19 29.87 1012 7 11.26538 0.01 0.254
10:49 am 10:49 Cloudy 55 13 54 12 94 94 S 10 17 29.88 1012 10 16.0934 0 0.0254
10:52 am 10:52 Cloudy 57 13.9 55 12.8 93 93 SSW 9 15 29.89 1012 10 16.0934 0 0.0254
11:52 am 11:52 Cloudy 58 14.4 56 13.3 93 93 S 8 13 29.91 1013 10 16.0934 0 0
12:52 pm 12:52 Cloudy 65 18.3 59 15 81 81 SSW 8 13 29.9 1013 10 16.0934 0 0.0254
1:49 pm 13:49 Cloudy with Light Rain 59 15 52 11 77 77 NNW 45 72 29.97 1015 10 16.0934 0 0.0254
1:52 pm 13:52 Cloudy with Light Rain 51 10.6 44 6.7 77 77 NW 39 63 29.99 1016 10 16.0934 0 0.0254
2:00 pm 14:00 Cloudy with Light Rain 48 9 43 6 82 82 NW 29 46 30 1016 10 16.0934 0 0
2:38 pm 14:38 Cloudy with Light Rain 46 8 36 2 66 66 NNW 21 33 30.06 1018 10 16.0934 0 0
2:52 pm 14:52 Cloudy with Light Rain 45 7.2 36 2.2 71 71 NNW 18 30 30.09 1019 10 16.0934 0 0.0254
3:52 pm 15:52 Cloudy with Light Rain 44 6.7 33 0.6 65 65 NNW 22 35 30.16 1021 10 16.0934 0 0.0254
4:52 pm 16:52 Mostly Cloudy 43 6.1 30 -1.1 60 60 NNW 20 31 30.23 1024 10 16.0934 0 0.0254
5:52 pm 17:52 Mostly Cloudy 41 5 28 -2.2 60 60 NNW 25 41 30.31 1026 10 16.0934 0 0
6:52 pm 18:52 Mostly Clear 40 4.4 27 -2.8 60 60 NNW 22 35 30.35 1028 10 16.0934 0 0
7:52 pm 19:52 Partly Cloudy 39 3.9 26 -3.3 60 60 NNW 17 28 30.4 1030 10 16.0934 0 0
8:52 pm 20:52 Cloudy 39 3.9 26 -3.3 60 60 NNW 14 22 30.44 1031 10 16.0934 0 0
9:52 pm 21:52 Mostly Cloudy 38 3.3 24 -4.4 57 57 N 14 22 30.5 1033 10 16.0934 0 0
10:52 pm 22:52 Partly Cloudy 37 2.8 21 -6.1 52 52 NNW 17 28 30.51 1033 10 16.0934 0 0
11:52 pm 23:52 Mostly Cloudy 36 2.2 20 -6.7 52 52 NNW 14 22 30.51 1033 10 16.0934 0 0

Powered by AerisWeather